Camarillo, CA

3:27 AM PST on December 10, 2016 (GMT -0800)
Camarillo

Weather History for KCMA - March, 2013

Change the Weather History Date:

Friday, March 29, 2013

  Actual Average Record
Temperature  
Mean Temperature 60 °F 57 °F  
Max Temperature 68 °F 67 °F 93 °F (2004)
Min Temperature 52 °F 48 °F 38 °F (1998)
Degree Days  
Heating Degree Days 5 8  
Month to date heating degree days 197 261  
Since 1 July heating degree days 1337 1597  
Cooling Degree Days 0 0  
Month to date cooling degree days 4 0  
Year to date cooling degree days 24 9  
Growing Degree Days 8 (Base 50)    
Moisture  
Dew Point 51 °F    
Average Humidity 75    
Maximum Humidity 86    
Minimum Humidity 63    
Precipitation  
Precipitation 0.00 in 0.04 in 0.78 in (1954)
Month to date precipitation 0.81 2.60  
Year to date precipitation 2.01 9.78  
Since 1 July precipitation 4.72  
Sea Level Pressure  
Sea Level Pressure 30.09 in    
Wind  
Wind Speed 5 mph (SSW)    
Max Wind Speed 13 mph    
Max Gust Speed 17 mph    
Visibility 5 miles    
Events Fog    
T = Trace of Precipitation, MM = Missing Value Source: NWS Daily Summary

Daily Weather History Graph

Daily Weather History Graph

Search for Another Location

Airport or City:

Trip Planner

Search our weather history database for the weather conditions in past years. The results will help you decide how hot, cold, wet, or windy it might be!

Date:

Astronomy

Mar. 29, 2013 Rise Set
Actual Time 6:47 AM PDT 7:15 PM PDT
Civil Twilight 6:22 AM PDT 7:40 PM PDT
Nautical Twilight 5:52 AM PDT 8:10 PM PDT
Astronomical Twilight 5:22 AM PDT 8:40 PM PDT
Moon 10:11 PM PDT (3/29) 8:07 AM PDT (3/29)
Length of Visible Light 13h 18m
Length of Day
12h 27m
Waning Gibbous, 93% of the Moon is Illuminated
Mar 29
Waning Gibbous
Apr 2
Last Quarter
Apr 10
New
Apr 18
First Quarter
Apr 25
Full

Hourly Weather History & Observations

Time (PDT) Temp. Dew Point Humidity Pressure Visibility Wind Dir Wind Speed Gust Speed Precip Events Conditions
12:55 AM 54.0 °F 48.9 °F 83% 30.08 in 6.0 mi Calm Calm - N/A   Haze
1:55 AM 54.0 °F 48.9 °F 83% 30.08 in 7.0 mi Calm Calm - N/A   Clear
2:55 AM 53.1 °F 48.0 °F 83% 30.08 in 6.0 mi Calm Calm - N/A   Haze
3:46 AM 51.8 °F 48.2 °F 88% 30.05 in 3.0 mi Calm Calm - N/A   Partly Cloudy
3:55 AM 52.0 °F 48.0 °F 86% 30.07 in 3.0 mi Calm Calm - N/A   Scattered Clouds
3:59 AM 53.6 °F 48.2 °F 82% 30.04 in 1.2 mi SE 3.5 mph - N/A   Haze
4:01 AM 53.6 °F 48.2 °F 82% 30.04 in 0.8 mi Calm Calm - N/A   Mist
4:38 AM 53.6 °F 50.0 °F 88% 30.05 in 1.8 mi Calm Calm - N/A   Overcast
4:45 AM 53.6 °F 48.2 °F 82% 30.05 in 2.5 mi Calm Calm - N/A   Overcast
4:55 AM 53.1 °F 48.9 °F 86% 30.08 in 2.0 mi Calm Calm - N/A   Overcast
5:04 AM 53.6 °F 48.2 °F 82% 30.06 in 5.0 mi Calm Calm - N/A   Overcast
5:21 AM 53.6 °F 51.8 °F 94% 30.06 in 2.0 mi Calm Calm - N/A   Overcast
5:34 AM 53.6 °F 51.8 °F 94% 30.07 in 1.8 mi Calm Calm - N/A   Overcast
5:46 AM 55.4 °F 51.8 °F 88% 30.06 in 2.0 mi NNW 4.6 mph - N/A   Overcast
5:55 AM 55.0 °F 52.0 °F 89% 30.09 in 2.5 mi Calm Calm - N/A   Overcast
6:24 AM 55.4 °F 51.8 °F 88% 30.08 in 3.0 mi Calm Calm - N/A   Overcast
6:55 AM 55.9 °F 51.1 °F 84% 30.11 in 3.0 mi NE 3.5 mph - N/A   Overcast
7:06 AM 55.4 °F 51.8 °F 88% 30.09 in 3.0 mi Calm Calm - N/A   Overcast
7:08 AM 55.4 °F 51.8 °F 88% 30.09 in 3.0 mi Calm Calm - N/A   Overcast
7:31 AM 55.4 °F 51.8 °F 88% 30.10 in 1.2 mi ESE 3.5 mph - N/A   Overcast
7:48 AM 55.4 °F 51.8 °F 88% 30.10 in 0.5 mi East 5.8 mph - N/A Fog Fog
7:55 AM 55.9 °F 52.0 °F 87% 30.12 in 0.5 mi East 4.6 mph - N/A Fog Fog
8:16 AM 57.2 °F 51.8 °F 82% 30.10 in 2.0 mi NE 3.5 mph - N/A   Haze
8:55 AM 57.9 °F 52.0 °F 81% 30.12 in 2.0 mi NE 3.5 mph - N/A   Overcast
9:55 AM 60.1 °F 52.0 °F 75% 30.13 in 4.0 mi Variable 3.5 mph - N/A   Haze
10:36 AM 60.8 °F 51.8 °F 72% 30.11 in 4.0 mi SW 8.1 mph - N/A   Haze
10:55 AM 61.0 °F 53.1 °F 75% 30.14 in 6.0 mi SSW 8.1 mph - N/A   Haze
11:55 AM 63.0 °F 53.1 °F 70% 30.14 in 9.0 mi West 11.5 mph - N/A   Mostly Cloudy
12:55 PM 63.0 °F 53.1 °F 70% 30.13 in 10.0 mi SSW 5.8 mph - N/A   Mostly Cloudy
1:14 PM 64.4 °F 53.6 °F 68% 30.10 in 10.0 mi WSW 8.1 mph - N/A   Scattered Clouds
1:55 PM 66.0 °F 54.0 °F 65% 30.11 in 10.0 mi SW 5.8 mph - N/A   Clear
2:55 PM 64.0 °F 53.1 °F 67% 30.10 in 10.0 mi SSW 11.5 mph - N/A   Clear
3:55 PM 66.9 °F 53.1 °F 61% 30.08 in 10.0 mi West 5.8 mph - N/A   Clear
4:55 PM 66.0 °F 53.1 °F 63% 30.07 in 10.0 mi WSW 9.2 mph - N/A   Clear
5:55 PM 60.1 °F 53.1 °F 78% 30.08 in 10.0 mi WSW 8.1 mph - N/A   Mostly Cloudy
6:55 PM 59.0 °F 53.1 °F 81% 30.08 in 7.0 mi Calm Calm - N/A   Overcast
7:55 PM 60.1 °F 53.1 °F 78% 30.08 in 9.0 mi Calm Calm - N/A   Mostly Cloudy
8:10 PM 60.8 °F 51.8 °F 72% 30.06 in 9.0 mi East 5.8 mph - N/A   Scattered Clouds
8:55 PM 61.0 °F 52.0 °F 72% 30.10 in 10.0 mi East 3.5 mph - N/A   Clear
9:53 PM 59.0 °F 53.6 °F 82% 30.11 in 5.0 mi SW 8.1 mph - N/A   Haze
9:55 PM 59.0 °F 53.1 °F 81% 30.13 in 5.0 mi WSW 6.9 mph - N/A   Haze
10:50 PM 57.2 °F 53.6 °F 88% 30.12 in 3.0 mi WSW 5.8 mph - N/A   Haze
11:55 PM 57.0 °F 52.0 °F 83% 30.14 in 7.0 mi SSW 3.5 mph - N/A   Overcast